Home > Products > Valid Products > RWR

000
ASUS44 KLCH 311110
RWRLCH
REGIONAL WEATHER ROUNDUP
NATIONAL WEATHER SERVICE LAKE CHARLES LA
600 AM CDT TUE MAY 31 2016

Note: "fair" indicates few or no clouds below 12,000 feet with no
significant weather and/or obstructions to visibility.


ACROSS SOUTHEAST TEXAS

CITY           SKY/WX    TMP DP  RH WIND       PRES   REMARKS
BEAUMONT       PTCLDY    71  69  93 CALM      29.89F
BEAUMONT CITY  FAIR      71  69  93 CALM      29.90F
ORANGE         PTSUNNY   71  68  93 CALM      29.92F FOG
JASPER         CLEAR     65  65  98 CALM      29.92F FOG
$$

ACROSS CENTRAL LOUISIANA

CITY           SKY/WX    TMP DP  RH WIND       PRES   REMARKS
LEESVILLE      CLEAR     70  69  96 SW3       29.90F
FULLERTON      FAIR      69  67  93 CALM      29.89F FOG
ALEXANDRIA INT CLEAR     69  69 100 CALM      29.90S
ESLER FIELD    CLEAR     68  66  93 CALM      29.92S FOG
DERIDDER       FAIR      68  67  95 CALM      29.93F
OAKDALE        FOG       66  65  97 CALM      29.92S VSB 1
OPELOUSAS      FAIR      70  70  99 CALM      29.92S
$$

ACROSS SOUTHWEST AND SOUTH CENTRAL LOUISIANA

CITY           SKY/WX    TMP DP  RH WIND       PRES   REMARKS
SULPHUR        SUNNY     73  72  97 CALM      29.92S
LAKE CHARLES   CLEAR     71  69  93 CALM      29.91S
CHENNAULT INT  CLEAR    N/A N/A N/A CALM        N/A
CAMERON PHI    NOT AVBL
DEQUINCY       CLOUDY    66  66 100 CALM      29.91F
JENNINGS       FAIR      72  72 100 CALM      29.92S
LAFAYETTE      CLOUDY    74  72  93 CALM      29.92S
NEW IBERIA     CLOUDY    75  71  87 CALM      29.93R
ABBEVILLE      FAIR      71  71 100 CALM      29.92S FOG
PATTERSON      CLOUDY    74  73  97 CALM      29.93S
SALT POINT       N/A     79  74  84 CALM      29.91R
$$

SELECTED SITES ACROSS THE REGION

CITY           SKY/WX    TMP DP  RH WIND       PRES   REMARKS
HOUSTON BUSH   PTCLDY    70  69  97 CALM      29.90S
HOUSTON HOBBY  PTCLDY    72  70  93 CALM      29.88F
GALVESTON      PTCLDY    75  72  90 S6        29.90S
COLLEGE STAT   PTCLDY    71  71 100 SE5       29.89S
CONROE         PTCLDY    66  65  96 CALM        N/A  FOG
HUNTSVILLE     CLEAR     72  69  90 S5        29.90R
LUFKIN         FOG       67  67 100 CALM      29.90S VSB 1/4
SHREVEPORT     MOCLDY    70  68  93 CALM      29.90S
MONROE         MOCLDY    71  70  96 CALM      29.93S
NATCHEZ MS     PTCLDY    68  64  88 S3        29.93S
BATON ROUGE    CLOUDY    74  69  85 MISG      29.92S
N.O. INTL ARPT MOCLDY    73  70  90 CALM      29.94R
SLIDELL        PTCLDY    69  68  96 CALM      29.94R
$$

MARINE REPORTS

STATION/POSITION TIME  SKY/WX   TEMP    WIND        PRES    VSBY
                                AIR SEA DIR/SP/G
                 (UTC)          (F)     (DEG/KT/KT) (MB)    (MI)
BUOY 30 S HIGH I 1050            80 81  170/  8/  8 1012.2R
WVE H/P(F/S)=  2/ 5

SEA RIM ST PARK  1100            78     190/  5/  6 1013.0F
PORT ARTHUR      1000               79  200/  2/  3 1012.9R
SABINE PASS N    1000            77 81  190/  4/  5 1014.0R
TEXAS POINT      NOT AVBL
CALCASIEU PASS   1000            79 82  250/  5/  6 1012.0F
LK CHARLES BEACH 1000            74 78              1013.4R
MARSH ISLAND     NOT AVBL
FRESH WATER LOCK 1000            78 85  230/  3/  4 1013.5F
AMERADA PASS     1000            77 76   CALM  /  3 1013.1R
$$






000
ASUS44 KLCH 310810
RWRLCH
REGIONAL WEATHER ROUNDUP
NATIONAL WEATHER SERVICE LAKE CHARLES LA
300 AM CDT TUE MAY 31 2016

Note: "fair" indicates few or no clouds below 12,000 feet with no
significant weather and/or obstructions to visibility.


ACROSS SOUTHEAST TEXAS

CITY           SKY/WX    TMP DP  RH WIND       PRES   REMARKS
BEAUMONT       CLOUDY    71  70  96 CALM      29.90F FOG
BEAUMONT CITY  FAIR      72  70  92 CALM      29.92S
ORANGE         MOSUNNY   71  69  93 CALM      29.93F FOG
JASPER         PTCLDY    68  67  98 CALM      29.95F FOG
$$

ACROSS CENTRAL LOUISIANA

CITY           SKY/WX    TMP DP  RH WIND       PRES   REMARKS
LEESVILLE      CLEAR     72  70  93 S3        29.91F
FULLERTON      FAIR      71  68  90 CALM      29.90F
ALEXANDRIA INT PTCLDY    73  71  93 CALM      29.90F
ESLER FIELD    CLOUDY    71  68  90 CALM      29.92F
DERIDDER       FAIR      71  70  96 CALM      29.94F
OAKDALE        SUNNY     69  68  98 CALM      29.92F
OPELOUSAS      FAIR      73  72  95 CALM      29.92F
$$

ACROSS SOUTHWEST AND SOUTH CENTRAL LOUISIANA

CITY           SKY/WX    TMP DP  RH WIND       PRES   REMARKS
SULPHUR        SUNNY     74  72  94 CALM      29.93F
LAKE CHARLES   CLEAR     72  70  93 SE3       29.92F
CHENNAULT INT  NOT AVBL
CAMERON PHI    MOSUNNY   79  72  78 SW7       29.95F
DEQUINCY       FAIR      68  68 100 CALM      29.92F
JENNINGS       FAIR      73  73 100 CALM      29.92F
LAFAYETTE      CLOUDY    75  71  87 SW3       29.93F
NEW IBERIA     CLOUDY    74  71  91 SW5       29.93
ABBEVILLE      FAIR      73  73 100 CALM      29.93F
PATTERSON      NOT AVBL
SALT POINT       N/A     79  73  82 VRB3      29.91F
$$

SELECTED SITES ACROSS THE REGION

CITY           SKY/WX    TMP DP  RH WIND       PRES   REMARKS
HOUSTON BUSH   PTCLDY    72  70  93 CALM      29.91F
HOUSTON HOBBY  MOCLDY    73  71  93 SE3       29.90F
GALVESTON      PTCLDY    77  72  84 S7        29.91F
COLLEGE STAT   PTCLDY    73  71  93 CALM      29.91S
CONROE         CLEAR     70  68  93 CALM        N/A  FOG
HUNTSVILLE     MOCLDY    73  69  87 S3        29.91F
LUFKIN         CLEAR     68  67  96 SE3       29.91F
SHREVEPORT     PTCLDY    73  70  90 SW5       29.90F
MONROE         CLOUDY    73  71  93 CALM      29.92F
NATCHEZ MS     CLEAR     68  64  88 SW3       29.93S
BATON ROUGE    CLOUDY    74  69  85 SW3       29.92F
N.O. INTL ARPT PTCLDY    73  71  93 W3        29.92F
SLIDELL        PTCLDY    72  70  93 CALM      29.92F
$$

MARINE REPORTS

STATION/POSITION TIME  SKY/WX   TEMP    WIND        PRES    VSBY
                                AIR SEA DIR/SP/G
                 (UTC)          (F)     (DEG/KT/KT) (MB)    (MI)
BUOY 30 S HIGH I 0750            80 82  210/ 10/ 12 1012.4F
WVE H/P(F/S)=  2/ 6

SEA RIM ST PARK  0800            78     210/  7/  8 1013.3F
PORT ARTHUR      0700               79  180/  2/  3 1013.7F
SABINE PASS N    0700            77 81  200/  4/  5 1014.8F
TEXAS POINT      NOT AVBL
CALCASIEU PASS   0700            80 82  230/  8/ 11 1013.0F
LK CHARLES BEACH 0700            76 78              1014.2F
MARSH ISLAND     NOT AVBL
FRESH WATER LOCK 0700            78 85  210/  5/  6 1014.3F
AMERADA PASS     0700            77 77  170/  1/  2 1013.9F
$$






000
ASUS44 KLCH 310510
RWRLCH
REGIONAL WEATHER ROUNDUP
NATIONAL WEATHER SERVICE LAKE CHARLES LA
1200 AM CDT TUE MAY 31 2016

Note: "fair" indicates few or no clouds below 12,000 feet with no
significant weather and/or obstructions to visibility.


ACROSS SOUTHEAST TEXAS

CITY           SKY/WX    TMP DP  RH WIND       PRES   REMARKS
BEAUMONT       CLEAR     71  69  93 S5        29.95S
BEAUMONT CITY  FAIR      74  71  91 S3        29.96S
ORANGE         MOCLDY    71  69  93 CALM      29.97S
JASPER         CLOUDY    70  68  95 CALM      29.98S
$$

ACROSS CENTRAL LOUISIANA

CITY           SKY/WX    TMP DP  RH WIND       PRES   REMARKS
LEESVILLE      PTCLDY    75  71  86 S6        29.95F
FULLERTON      FAIR      73  70  90 CALM      29.94F
ALEXANDRIA INT CLEAR     73  69  87 S5        29.94S
ESLER FIELD    CLEAR     72  68  87 S6        29.96S
DERIDDER       FAIR      75  72  90 CALM      29.98F
OAKDALE        CLEAR     71  70  98 CALM      29.96F FOG
OPELOUSAS      FAIR      75  72  89 E6        29.97S
$$

ACROSS SOUTHWEST AND SOUTH CENTRAL LOUISIANA

CITY           SKY/WX    TMP DP  RH WIND       PRES   REMARKS
SULPHUR        CLEAR     75  72  91 CALM      29.97S
LAKE CHARLES   CLOUDY    73  71  93 CALM      29.96F
CHENNAULT INT  NOT AVBL
CAMERON PHI    CLEAR     79  72  78 CALM      29.99R
DEQUINCY       FAIR      70  70 100 CALM      29.96F
JENNINGS       FAIR      75  73  94 MISG      29.97F
LAFAYETTE      CLEAR     77  70  79 W5        29.97S
NEW IBERIA     CLEAR     73  70  90 W6        29.97S
ABBEVILLE      FAIR      73  72  94 CALM      29.98R
PATTERSON      CLEAR     73  71  93 CALM      29.97F
SALT POINT       N/A     77  73  87 CALM      29.95S
$$

SELECTED SITES ACROSS THE REGION

CITY           SKY/WX    TMP DP  RH WIND       PRES   REMARKS
HOUSTON BUSH   PTCLDY    76  70  82 S3        29.96R
HOUSTON HOBBY  CLOUDY    74  71  91 S3        29.95R
GALVESTON      CLEAR     78  73  84 S10       29.96R
COLLEGE STAT   MOCLDY    76  71  85 S6        29.95R
CONROE         PTCLDY    73  70  90 SE3         N/A
HUNTSVILLE     PTCLDY    76  70  82 S5        29.96R
LUFKIN         MOCLDY    70  67  90 CALM      29.95S
SHREVEPORT     MOCLDY    74  71  91 E5        29.92F
MONROE         CLOUDY    74  71  91 SE3       29.95F
NATCHEZ MS     CLOUDY    70  66  88 CALM      29.96S
BATON ROUGE    CLEAR     72  67  84 W3        29.96F
N.O. INTL ARPT PTCLDY    76  70  82 S3        29.96S
SLIDELL        CLOUDY    74  72  93 CALM      29.95F
$$

MARINE REPORTS

STATION/POSITION TIME  SKY/WX   TEMP    WIND        PRES    VSBY
                                AIR SEA DIR/SP/G
                 (UTC)          (F)     (DEG/KT/KT) (MB)    (MI)
BUOY 30 S HIGH I 0450            80 83  190/ 10/ 14 1013.8R
WVE H/P(F/S)=  2/ 5

SEA RIM ST PARK  0500            79     200/  8/ 10 1014.9R
PORT ARTHUR      0400               80  190/  2/  2 1014.4
SABINE PASS N    0406            77 81  200/  3/  5 1015.5
TEXAS POINT      NOT AVBL
CALCASIEU PASS   0400            80 83  220/  7/  9 1013.6
LK CHARLES BEACH 0400            77 78              1015.3
MARSH ISLAND     0400            81                   N/A
FRESH WATER LOCK 0400            79 85  190/  7/  9 1015.2
AMERADA PASS     0400            77 78   CALM  /  2 1014.5
$$






000
ASUS44 KLCH 310410
RWRLCH
REGIONAL WEATHER ROUNDUP
NATIONAL WEATHER SERVICE LAKE CHARLES LA
1100 PM CDT MON MAY 30 2016

Note: "fair" indicates few or no clouds below 12,000 feet with no
significant weather and/or obstructions to visibility.


ACROSS SOUTHEAST TEXAS

CITY           SKY/WX    TMP DP  RH WIND       PRES   REMARKS
BEAUMONT       CLEAR     73  71  93 CALM      29.95R
BEAUMONT CITY  FAIR      74  71  90 CALM      29.96R
ORANGE         CLEAR     72  69  92 CALM      29.97S
JASPER         CLEAR     71  69  93 CALM      29.99R
$$

ACROSS CENTRAL LOUISIANA

CITY           SKY/WX    TMP DP  RH WIND       PRES   REMARKS
LEESVILLE      NOT AVBL
FULLERTON      MOCLDY    75  70  84 CALM      29.95R
ALEXANDRIA INT PTCLDY    76  68  76 E9        29.94R
ESLER FIELD    PTCLDY    71  67  87 CALM      29.96R
DERIDDER       FAIR      76  71  83 CALM      29.99R
OAKDALE        CLEAR     73  72  95 CALM      29.97R
OPELOUSAS      CLOUDY    76  73  90 SE6       29.97R
$$

ACROSS SOUTHWEST AND SOUTH CENTRAL LOUISIANA

CITY           SKY/WX    TMP DP  RH WIND       PRES   REMARKS
SULPHUR        CLEAR     76  72  85 CALM      29.97R
LAKE CHARLES   CLEAR     74  72  93 CALM      29.97R
CHENNAULT INT  NOT AVBL
CAMERON PHI    CLEAR     81  72  74 SW7G14    29.98S
DEQUINCY       FAIR      71  71 100 CALM      29.97S
JENNINGS       FAIR      75  72  88 MISG      29.97S
LAFAYETTE      CLEAR     76  70  82 SW3       29.97R
NEW IBERIA     CLEAR     73  70  90 S3        29.97R
ABBEVILLE      FAIR      73  72  98 CALM      29.97R
PATTERSON      CLEAR     73  71  93 CALM      29.98R
SALT POINT       N/A     78  73  84 CALM      29.95R
$$

SELECTED SITES ACROSS THE REGION

CITY           SKY/WX    TMP DP  RH WIND       PRES   REMARKS
HOUSTON BUSH   CLOUDY    76  70  82 S5        29.94R
HOUSTON HOBBY  CLOUDY    75  71  87 S5        29.94R
GALVESTON      PTCLDY    78  72  81 S12       29.95R
COLLEGE STAT   PTCLDY    77  70  79 S6        29.94R
CONROE         PTCLDY    73  71  93 E3          N/A
HUNTSVILLE     MOCLDY    78  69  73 CALM      29.94R
LUFKIN         CLOUDY    71  68  90 CALM      29.95R
SHREVEPORT     MOCLDY    76  71  85 SE6       29.94R
MONROE         CLOUDY    74  71  91 E3        29.96S
NATCHEZ MS     CLOUDY    72  66  83 S5        29.96F
BATON ROUGE    CLEAR     73  68  84 NE5       29.97R
N.O. INTL ARPT PTCLDY    77  69  76 VRB3      29.96S
SLIDELL        CLEAR     75  72  90 CALM      29.96R
$$

MARINE REPORTS

STATION/POSITION TIME  SKY/WX   TEMP    WIND        PRES    VSBY
                                AIR SEA DIR/SP/G
                 (UTC)          (F)     (DEG/KT/KT) (MB)    (MI)
BUOY 30 S HIGH I 0350            80 83  180/ 10/ 12 1013.7R
WVE H/P(F/S)=  2/ 5

SEA RIM ST PARK  0400            79     200/  8/  9 1014.7R
PORT ARTHUR      0300               80                N/A
SABINE PASS N    0300               81                N/A
TEXAS POINT      NOT AVBL
CALCASIEU PASS   0300               83                N/A
LK CHARLES BEACH 0300               78                N/A
MARSH ISLAND     0300            81                   N/A
FRESH WATER LOCK 0300               85                N/A
AMERADA PASS     0300               78                N/A
$$






000
ASUS44 KLCH 310310
RWRLCH
REGIONAL WEATHER ROUNDUP
NATIONAL WEATHER SERVICE LAKE CHARLES LA
1000 PM CDT MON MAY 30 2016

Note: "fair" indicates few or no clouds below 12,000 feet with no
significant weather and/or obstructions to visibility.


ACROSS SOUTHEAST TEXAS

CITY           SKY/WX    TMP DP  RH WIND       PRES   REMARKS
BEAUMONT       CLEAR     74  71  91 CALM      29.93R
BEAUMONT CITY  FAIR      76  71  85 CALM      29.95R
ORANGE         CLEAR     76  70  81 CALM      29.96R
JASPER         CLEAR     73  70  91 CALM      29.98R
$$

ACROSS CENTRAL LOUISIANA

CITY           SKY/WX    TMP DP  RH WIND       PRES   REMARKS
LEESVILLE      NOT AVBL
FULLERTON      FAIR      76  70  82 CALM      29.93R
ALEXANDRIA INT CLEAR     75  72  90 SE3       29.92R
ESLER FIELD    CLEAR     72  67  84 E3        29.95R
DERIDDER       FAIR      78  71  78 S5        29.97R
OAKDALE        CLEAR     73  73  98 CALM      29.96R
OPELOUSAS      FAIR      76  73  88 SE5       29.96R
$$

ACROSS SOUTHWEST AND SOUTH CENTRAL LOUISIANA

CITY           SKY/WX    TMP DP  RH WIND       PRES   REMARKS
SULPHUR        CLEAR     78  71  80 CALM      29.96R
LAKE CHARLES   PTCLDY    76  72  87 CALM      29.95R
CHENNAULT INT  CLEAR    N/A N/A N/A CALM      29.90S
CAMERON PHI    CLEAR     79  72  78 SW12      29.97R
DEQUINCY       FAIR      75  72  89 CALM      29.96R
JENNINGS       FAIR      77  72  83 CALM      29.96R
LAFAYETTE      CLEAR     79  70  74 S5        29.96R
NEW IBERIA     CLEAR     76  70  82 SE3       29.96R
ABBEVILLE      FAIR      74  72  92 CALM      29.96R
PATTERSON      PTCLDY    74  72  93 CALM      29.96S
SALT POINT       N/A    N/A N/A N/A CALM      29.94S
$$

SELECTED SITES ACROSS THE REGION

CITY           SKY/WX    TMP DP  RH WIND       PRES   REMARKS
HOUSTON BUSH   CLOUDY    77  70  79 S6        29.92S
HOUSTON HOBBY  PTCLDY    77  71  82 S5        29.92S
GALVESTON      PTCLDY    78  72  81 S10       29.94S
COLLEGE STAT   PTCLDY    78  70  76 S5        29.92R
CONROE         CLOUDY    73  71  93 CALM        N/A
HUNTSVILLE     CLEAR     79  69  71 CALM      29.92S
LUFKIN         CLEAR     75  67  76 S5        29.93R
SHREVEPORT     CLEAR     76  71  85 E5        29.92R
MONROE         CLOUDY    75  73  93 CALM      29.96R
NATCHEZ MS     PTCLDY    73  66  78 SW7       29.97R
BATON ROUGE    CLOUDY    75  67  76 CALM      29.96R
N.O. INTL ARPT PTCLDY    78  69  73 S7        29.96R
SLIDELL        CLOUDY    76  72  87 CALM      29.95S
$$

MARINE REPORTS

STATION/POSITION TIME  SKY/WX   TEMP    WIND        PRES    VSBY
                                AIR SEA DIR/SP/G
                 (UTC)          (F)     (DEG/KT/KT) (MB)    (MI)
BUOY 30 S HIGH I 0250            80 83  200/ 10/ 12 1013.5S
WVE H/P(F/S)=  2/ 6

SEA RIM ST PARK  0300            79     200/  9/ 11 1014.3R
PORT ARTHUR      0200               80              1013.6R
SABINE PASS N    0200               82              1014.9R
TEXAS POINT      NOT AVBL
CALCASIEU PASS   0200               83              1012.4F
LK CHARLES BEACH 0200               78              1013.9R
MARSH ISLAND     0200            81                   N/A
FRESH WATER LOCK 0200               86              1014.4S
AMERADA PASS     0200               79              1014.5R
$$






000
ASUS44 KLCH 310110
RWRLCH
REGIONAL WEATHER ROUNDUP
NATIONAL WEATHER SERVICE LAKE CHARLES LA
800 PM CDT MON MAY 30 2016

Note: "fair" indicates few or no clouds below 12,000 feet with no
significant weather and/or obstructions to visibility.


ACROSS SOUTHEAST TEXAS

CITY           SKY/WX    TMP DP  RH WIND       PRES   REMARKS
BEAUMONT       PTCLDY    78  70  76 S7        29.91F
BEAUMONT CITY  FAIR      80  71  74 S5        29.92S
ORANGE         CLEAR     80  68  67 S5        29.93F
JASPER         CLEAR     80  69  70 S6        29.94S
$$

ACROSS CENTRAL LOUISIANA

CITY           SKY/WX    TMP DP  RH WIND       PRES   REMARKS
LEESVILLE      PTCLDY    83  70  64 S6        29.90S
FULLERTON      FAIR      80  70  71 CALM      29.89
ALEXANDRIA INT CLEAR     83  71  67 S5        29.89S
ESLER FIELD    CLEAR     82  72  71 E3        29.92R
DERIDDER       FAIR      82  71  69 SW5       29.93S
OAKDALE        CLEAR     79  73  83 CALM      29.91R
OPELOUSAS      FAIR      80  73  80 S3        29.92R
$$

ACROSS SOUTHWEST AND SOUTH CENTRAL LOUISIANA

CITY           SKY/WX    TMP DP  RH WIND       PRES   REMARKS
SULPHUR        CLEAR     80  70  71 S7        29.92S
LAKE CHARLES   CLEAR     80  71  74 S6        29.91F
CHENNAULT INT  CLEAR    N/A N/A N/A SE5       29.90F
CAMERON PHI    CLEAR     81  72  74 S10       29.95F
DEQUINCY       FAIR      79  70  75 CALM      29.92S
JENNINGS       NOT AVBL
LAFAYETTE      MOCLDY    82  71  69 S8        29.91F
NEW IBERIA     CLOUDY    80  69  69 S7        29.93F
ABBEVILLE      FAIR      78  72  81 S6        29.92F
PATTERSON      CLEAR     79  72  79 CALM      29.96R
SALT POINT       N/A     80  73  79 VRB3      29.93R
$$

SELECTED SITES ACROSS THE REGION

CITY           SKY/WX    TMP DP  RH WIND       PRES   REMARKS
HOUSTON BUSH   PTCLDY    79  71  76 SE10      29.91R
HOUSTON HOBBY  PTCLDY    81  70  69 S9        29.92R
GALVESTON      PTCLDY    79  72  79 S7        29.94R
COLLEGE STAT   CLEAR     82  68  62 SE5       29.92R
CONROE         CLEAR     80  70  71 SE5         N/A
HUNTSVILLE     CLEAR     82  66  58 S5        29.92R
LUFKIN         CLEAR     80  67  64 SW5       29.91R
SHREVEPORT     PTCLDY    82  70  66 S5        29.89S
MONROE         CLOUDY    78  73  84 CALM      29.93S
NATCHEZ MS     CLOUDY    75  68  78 SE9       29.96R
BATON ROUGE    CLOUDY    82  67  60 SW3       29.94R
N.O. INTL ARPT MOCLDY    80  71  74 S6        29.94R
SLIDELL        PTCLDY    83  72  69 CALM      29.94R
$$

MARINE REPORTS

STATION/POSITION TIME  SKY/WX   TEMP    WIND        PRES    VSBY
                                AIR SEA DIR/SP/G
                 (UTC)          (F)     (DEG/KT/KT) (MB)    (MI)
BUOY 30 S HIGH I 0050            80 83  150/ 10/ 12 1013.0F
WVE H/P(F/S)=  2/ 5

SEA RIM ST PARK  0100            79     190/  8/ 10 1013.8F
PORT ARTHUR      0000               80                N/A
SABINE PASS N    0000            81 82                N/A
TEXAS POINT      NOT AVBL
CALCASIEU PASS   0000            81 83                N/A
LK CHARLES BEACH 0000            85 78                N/A
MARSH ISLAND     0000            83                   N/A
FRESH WATER LOCK 0000            80 86                N/A
AMERADA PASS     0000            81 82                N/A
$$






000
ASUS44 KLCH 301310
RWRLCH
REGIONAL WEATHER ROUNDUP
NATIONAL WEATHER SERVICE LAKE CHARLES LA
800 AM CDT MON MAY 30 2016

Note: "fair" indicates few or no clouds below 12,000 feet with no
significant weather and/or obstructions to visibility.


ACROSS SOUTHEAST TEXAS

CITY           SKY/WX    TMP DP  RH WIND       PRES   REMARKS
BEAUMONT       CLOUDY    76  74  93 CALM      30.02S
BEAUMONT CITY  FAIR      74  72  93 NW3       30.04R
ORANGE         CLOUDY    73  71  93 CALM      30.04S
JASPER         MOSUNNY   70  69  97 CALM      30.07R
$$

ACROSS CENTRAL LOUISIANA

CITY           SKY/WX    TMP DP  RH WIND       PRES   REMARKS
LEESVILLE      MOSUNNY   76  73  88 N3        30.04S
FULLERTON      FAIR      76  71  85 VRB3      30.02S
ALEXANDRIA INT SUNNY     74  72  93 CALM      30.03R
ESLER FIELD    SUNNY     74  71  91 CALM      30.04R
DERIDDER       FAIR      73  72  95 CALM      30.06S FOG
OAKDALE        SUNNY     74  73  96 CALM      30.04S FOG
OPELOUSAS      CLOUDY    73  73  99 CALM      30.04S
$$

ACROSS SOUTHWEST AND SOUTH CENTRAL LOUISIANA

CITY           SKY/WX    TMP DP  RH WIND       PRES   REMARKS
SULPHUR        MOSUNNY   76  76  99 CALM      30.04R
LAKE CHARLES   CLOUDY    77  74  90 NE3       30.03R
CHENNAULT INT  SUNNY    N/A N/A N/A CALM        N/A
CAMERON PHI    SUNNY     79  72  78 CALM      30.05S
DEQUINCY       FAIR      71  71 100 CALM      30.04S
JENNINGS       CLOUDY    75  75 100 N5        30.04R FOG
LAFAYETTE      MOSUNNY   77  74  90 NW6       30.04R
NEW IBERIA     MOSUNNY   76  74  93 NW3       30.04R FOG
ABBEVILLE      FOG       74  74 100 CALM      30.05R VSB 1/4
PATTERSON      NOT AVBL
SALT POINT       N/A     77  74  90 N5        30.03R
$$

SELECTED SITES ACROSS THE REGION

CITY           SKY/WX    TMP DP  RH WIND       PRES   REMARKS
HOUSTON BUSH   CLOUDY    75  73  93 NW5       30.06R
HOUSTON HOBBY  CLOUDY    76  73  91 CALM      30.03R
GALVESTON      MOSUNNY   78  73  84 CALM      30.03R
COLLEGE STAT   CLOUDY    72  72 100 CALM      30.05F FOG
CONROE         PTSUNNY   70  70 100 CALM      30.06R FOG
HUNTSVILLE     CLOUDY    73  71  93 CALM      30.07R
LUFKIN         MOSUNNY   72  71  97 CALM      30.05R FOG
SHREVEPORT     CLOUDY    77  71  82 CALM      30.05R
MONROE         SUNNY     73  66  78 E5        30.07R
NATCHEZ MS     SUNNY     72  66  83 CALM      30.06R
BATON ROUGE    SUNNY     77  70  79 CALM      30.04R
N.O. INTL ARPT PTSUNNY   79  72  79 NW6       30.04R
SLIDELL        SUNNY     77  73  87 N5        30.03R
$$

MARINE REPORTS

STATION/POSITION TIME  SKY/WX   TEMP    WIND        PRES    VSBY
                                AIR SEA DIR/SP/G
                 (UTC)          (F)     (DEG/KT/KT) (MB)    (MI)
BUOY 30 S HIGH I 1250            79 80  160/  4/  4 1016.0R
WVE H/P(F/S)=  2/ 5

SEA RIM ST PARK  1300            79     160/  3/  3 1017.0S
PORT ARTHUR      1200               79   CALM  /  1 1016.7R
SABINE PASS N    1200            77 81   CALM  /  1 1018.0R
TEXAS POINT      NOT AVBL
CALCASIEU PASS   1200            79 82   CALM  /  2 1015.8R
LK CHARLES BEACH 1200            75 78              1017.2R
MARSH ISLAND     1200            79                   N/A
FRESH WATER LOCK 1200            75 84  320/  3/  4 1017.5R
AMERADA PASS     1200            76 76     CALM     1016.6R
$$






    US Dept of Commerce
    National Oceanic and Atmospheric Administration
    National Weather Service
    1325 East West Highway
    Silver Spring, MD 20910
    Page Author: NWS Internet Services Team
Disclaimer
Information Quality
Credits
Glossary
Privacy Policy
Freedom of Information Act (FOIA)
About Us
Career Opportunities